Flag for Canada Weather for the Past 2 Weeks in Happy Valley-Goose Bay, Newfoundland and Labrador, Canada

Now
23 °F

Light snow. Mostly cloudy.


Feels Like: 16 °F
Forecast: 18 / 23 °F
Wind: 6 mph from East

Location: Goose

Current Time: Feb 11, 2016 at 10:19:55 AM

Latest Report: Feb 11, 2016 at 10:00 AM


Visibility: 7 mi

Pressure: 29.33 "Hg

Humidity: 74%

Dew point: 16 °F

Location of Happy Valley-Goose BayLocation

Historic Weather in Happy Valley-Goose Bay — Graph

°F

Happy Valley-Goose Bay Temperature Yesterday

Maximum temperature yesterday: 23 °F (at 4:00 PM)
Minimum temperature yesterday: -2 °F (at 12:00 AM)
Average temperature yesterday: 12 °F

High & Low Weather Summary for the Past Weeks

 TemperatureHumidityPressure
High28 °F (Feb 1, 9:00 AM)80% (Feb 1, 2:00 PM)30.45 "Hg (Feb 1, 2:00 PM)
Low-24 °F (Feb 9, 5:00 AM)33% (Jan 28, 3:00 PM)29.11 "Hg (Feb 1, 10:00 PM)
Average0 °F58%29.88 "Hg
* Reported Jan 27 9:00 AM — Feb 11 9:00 AM, Happy Valley-Goose Bay, Weather by CustomWeather, © 2016

Note: Actual official high and low records may vary slightly from our data, if they occured in-between our weather recording intervals... More about our weather records

Advertising

Happy Valley-Goose Bay Weather History for the Previous 24 Hours

 ConditionsComfort  
Time TempWeatherWind HumidityBarometerVisibility
9:00 AM
Thu, Feb 11
21 °FLight snow. Mostly cloudy.8 mph74%29.35 "Hg5 mi
8:54 AM21 °FLight snow. Mostly cloudy.7 mph74%29.35 "Hg4 mi
8:00 AM21 °FLight snow. Mostly cloudy.8 mph74%29.36 "Hg4 mi
7:00 AM21 °FLight snow. Mostly cloudy.8 mph74%29.37 "Hg4 mi
6:54 AM21 °FLight snow. Mostly cloudy.8 mph74%29.37 "Hg3 mi
6:00 AM21 °FLight snow. Ice fog.6 mph74%29.38 "Hg1 mi
5:00 AM21 °FLight snow. Ice fog.7 mph74%29.39 "Hg1 mi
4:53 AM21 °FLight snow. Ice fog.7 mph74%29.39 "Hg1 mi
4:00 AM21 °FLight snow. Mostly cloudy.7 mph74%29.40 "Hg1 mi
3:00 AM21 °FLight snow. Ice fog.7 mph74%29.41 "Hg1 mi
2:00 AM21 °FLight snow. Mostly cloudy.7 mph74%29.42 "Hg2 mi
1:00 AM21 °FLight snow. Mostly cloudy.7 mph74%29.44 "Hg2 mi
12:00 AM21 °FLight snow. Low clouds.8 mph74%29.45 "Hg2 mi
11:00 PM
Wed, Feb 10
21 °FLight snow. Mostly cloudy.8 mph74%29.47 "Hg2 mi
10:00 PM21 °FLight snow. Mostly cloudy.8 mph74%29.49 "Hg2 mi
9:00 PM21 °FLight snow. Mostly cloudy.10 mph74%29.50 "Hg3 mi
8:00 PM21 °FLight snow. Overcast.9 mph74%29.51 "Hg5 mi
7:00 PM21 °FLight snow. Mostly cloudy.12 mph74%29.51 "Hg1 mi
6:53 PM21 °FLight snow. Mostly cloudy.13 mph74%29.51 "Hg2 mi
5:00 PM23 °FLight snow. Mostly cloudy.13 mph68%29.51 "Hg3 mi
4:00 PM23 °FLight snow. Mostly cloudy.13 mph68%29.50 "Hg3 mi
3:00 PM21 °FLight snow. Overcast.14 mph74%29.50 "Hg2 mi
2:00 PM21 °FLight snow. Overcast.17 mph74%29.52 "Hg1 mi
1:00 PM21 °FLight snow. Mostly cloudy.15 mph68%29.54 "Hg1 mi
12:00 PM19 °FLight snow. More clouds than sun.13 mph73%29.57 "Hg3 mi
11:00 AM12 °FLight snow. Overcast.12 mph73%29.60 "Hg1 mi
10:00 AM10 °FLight snow. Overcast.No wind72%29.62 "Hg1 mi
Weather by CustomWeather, © 2016

See weather overviewHow to use our weather pages